When you browse on this site, cookies collect data to enhance your experience and personalize the content and advertising you see.
Visit our Privacy Policy to learn more. By continuing to use the site, you agree to this use of cookies and data.
  • In Germany
  • List of Countries
  • For 7 days
  • Water Temperature
  • Satellite Maps
  • Weather Map
  • Weather Widgets
  • user-avatar
    Login

    Hourly Weather Krzywica

    Today, 20 July, Saturday

    Time Temperature Precipitation Wind Pressure Humidity
    00:00 +19°C° 0.3 mm 2 mps 752 mmHg 77%
    01:00 +18°C° 0 mm 2 mps 752 mmHg 80%
    02:00 +18°C° 0.4 mm 2 mps 752 mmHg 83%
    03:00 +18°C° 0.4 mm 2 mps 752 mmHg 85%
    04:00 +18°C° 0.4 mm 2 mps 752 mmHg 88%
    05:00 +19°C° 0.1 mm 2 mps 752 mmHg 85%
    06:00 +20°C° 0.1 mm 2 mps 752 mmHg 82%
    07:00 +20°C° 0.1 mm 2 mps 753 mmHg 79%
    08:00 +23°C° 0 mm 2 mps 753 mmHg 73%
    09:00 +24°C° 0 mm 2 mps 753 mmHg 66%
    10:00 +26°C° 0 mm 2 mps 753 mmHg 60%
    11:00 +27°C° 0.2 mm 2 mps 753 mmHg 56%
    12:00 +28°C° 0.2 mm 2 mps 752 mmHg 51%
    13:00 +29°C° 0.2 mm 2 mps 752 mmHg 47%
    14:00 +28°C° 0.5 mm 2 mps 752 mmHg 51%
    15:00 +28°C° 0.5 mm 2 mps 753 mmHg 54%
    16:00 +27°C° 0.5 mm 1 mps 753 mmHg 58%
    17:00 +26°C° 0.1 mm 1 mps 753 mmHg 62%
    18:00 +25°C° 0.1 mm 1 mps 752 mmHg 66%
    19:00 +24°C° 0.1 mm 1 mps 752 mmHg 70%
    20:00 +23°C° 0 mm 1 mps 753 mmHg 71%
    21:00 +22°C° 0 mm 1 mps 753 mmHg 73%
    22:00 +21°C° 0 mm 1 mps 753 mmHg 75%
    23:00 +21°C° 0 mm 1 mps 753 mmHg 76%

    Tomorrow, 21 July, Sunday

    Time Temperature Precipitation Wind Pressure Humidity
    00:00 +21°C° 0 mm 1 mps 753 mmHg 76%
    01:00 +21°C° 0 mm 1 mps 753 mmHg 77%
    02:00 +20°C° 0 mm 1 mps 753 mmHg 78%
    03:00 +20°C° 0 mm 1 mps 753 mmHg 79%
    04:00 +19°C° 0 mm 1 mps 753 mmHg 79%
    05:00 +20°C° 0 mm 2 mps 752 mmHg 75%
    06:00 +23°C° 0 mm 2 mps 752 mmHg 70%
    07:00 +24°C° 0 mm 2 mps 752 mmHg 65%
    08:00 +26°C° 0 mm 2 mps 752 mmHg 61%
    09:00 +27°C° 0 mm 3 mps 752 mmHg 57%
    10:00 +29°C° 0 mm 4 mps 753 mmHg 52%
    11:00 +29°C° 0.1 mm 4 mps 752 mmHg 52%
    12:00 +30°C° 0.1 mm 4 mps 752 mmHg 52%
    13:00 +32°C° 0.1 mm 4 mps 752 mmHg 51%
    14:00 +30°C° 2.1 mm 3 mps 752 mmHg 55%
    15:00 +29°C° 2.1 mm 3 mps 752 mmHg 59%
    16:00 +28°C° 2.1 mm 3 mps 752 mmHg 62%
    17:00 +27°C° 1.9 mm 3 mps 752 mmHg 68%
    18:00 +25°C° 1.9 mm 3 mps 752 mmHg 73%
    19:00 +23°C° 1.9 mm 4 mps 752 mmHg 79%
    20:00 +22°C° 0.2 mm 4 mps 753 mmHg 82%
    21:00 +21°C° 0.2 mm 4 mps 753 mmHg 85%
    22:00 +20°C° 0.2 mm 4 mps 753 mmHg 88%
    23:00 +20°C° 0 mm 4 mps 753 mmHg 89%

    Day after tomorrow, 22 July, Monday

    Time Temperature Precipitation Wind Pressure Humidity
    00:00 +19°C° 0 mm 3 mps 754 mmHg 90%
    01:00 +18°C° 0 mm 3 mps 754 mmHg 91%
    02:00 +18°C° 0 mm 3 mps 754 mmHg 91%
    03:00 +17°C° 0 mm 3 mps 754 mmHg 90%
    04:00 +17°C° 0 mm 3 mps 755 mmHg 89%
    05:00 +18°C° 0 mm 4 mps 755 mmHg 86%
    06:00 +17°C° 0 mm 5 mps 755 mmHg 83%
    07:00 +19°C° 0 mm 5 mps 755 mmHg 80%
    08:00 +19°C° 0.1 mm 5 mps 756 mmHg 80%
    09:00 +19°C° 0.1 mm 5 mps 756 mmHg 79%
    10:00 +19°C° 0.1 mm 5 mps 756 mmHg 79%
    11:00 +21°C° 0.1 mm 5 mps 756 mmHg 72%
    12:00 +22°C° 0.1 mm 6 mps 756 mmHg 65%
    13:00 +24°C° 0.1 mm 6 mps 756 mmHg 58%
    14:00 +24°C° 0 mm 6 mps 756 mmHg 57%
    15:00 +24°C° 0 mm 6 mps 756 mmHg 56%
    16:00 +24°C° 0 mm 6 mps 756 mmHg 54%
    17:00 +23°C° 0 mm 5 mps 756 mmHg 59%
    18:00 +21°C° 0 mm 4 mps 756 mmHg 64%
    19:00 +20°C° 0 mm 3 mps 756 mmHg 69%
    20:00 +19°C° 0 mm 3 mps 756 mmHg 73%
    21:00 +18°C° 0 mm 3 mps 757 mmHg 76%
    22:00 +17°C° 0 mm 2 mps 757 mmHg 79%
    23:00 +16°C° 0 mm 2 mps 757 mmHg 81%

    23 July, Tuesday

    Time Temperature Precipitation Wind Pressure Humidity
    00:00 +16°C° 0 mm 3 mps 757 mmHg 82%
    01:00 +14°C° 0 mm 3 mps 756 mmHg 84%
    02:00 +14°C° 0 mm 3 mps 756 mmHg 85%
    03:00 +14°C° 0 mm 3 mps 756 mmHg 87%
    04:00 +13°C° 0 mm 3 mps 756 mmHg 88%
    05:00 +16°C° 0 mm 3 mps 756 mmHg 84%
    06:00 +17°C° 0 mm 4 mps 756 mmHg 80%
    07:00 +18°C° 0 mm 4 mps 756 mmHg 76%
    08:00 +20°C° 0 mm 4 mps 756 mmHg 71%
    09:00 +21°C° 0 mm 5 mps 756 mmHg 67%
    10:00 +23°C° 0 mm 5 mps 756 mmHg 62%
    11:00 +23°C° 0.1 mm 5 mps 755 mmHg 60%
    12:00 +25°C° 0.1 mm 5 mps 755 mmHg 57%
    13:00 +26°C° 0.1 mm 5 mps 755 mmHg 55%
    14:00 +26°C° 0 mm 5 mps 755 mmHg 56%
    15:00 +26°C° 0 mm 5 mps 755 mmHg 57%
    16:00 +26°C° 0 mm 5 mps 755 mmHg 58%
    17:00 +25°C° 0 mm 5 mps 755 mmHg 64%
    18:00 +23°C° 0 mm 4 mps 755 mmHg 69%
    19:00 +22°C° 0 mm 3 mps 755 mmHg 75%
    20:00 +21°C° 0 mm 3 mps 755 mmHg 79%
    21:00 +19°C° 0 mm 2 mps 755 mmHg 83%
    22:00 +18°C° 0 mm 2 mps 756 mmHg 88%
    23:00 +18°C° 0 mm 2 mps 756 mmHg 89%

    24 July, Wednesday

    Time Temperature Precipitation Wind Pressure Humidity
    00:00 +17°C° 0 mm 2 mps 756 mmHg 90%
    01:00 +17°C° 0 mm 2 mps 756 mmHg 91%
    02:00 +16°C° 0 mm 2 mps 755 mmHg 92%
    03:00 +16°C° 0 mm 2 mps 755 mmHg 92%
    04:00 +16°C° 0 mm 2 mps 755 mmHg 93%
    05:00 +17°C° 0 mm 2 mps 755 mmHg 87%
    06:00 +19°C° 0 mm 2 mps 756 mmHg 82%
    07:00 +21°C° 0 mm 1 mps 756 mmHg 76%
    08:00 +21°C° 0 mm 2 mps 756 mmHg 70%
    09:00 +24°C° 0 mm 2 mps 756 mmHg 64%
    10:00 +25°C° 0 mm 2 mps 756 mmHg 58%
    11:00 +26°C° 0 mm 2 mps 756 mmHg 57%
    12:00 +27°C° 0 mm 3 mps 756 mmHg 55%
    13:00 +27°C° 0 mm 3 mps 755 mmHg 54%
    14:00 +27°C° 0 mm 3 mps 755 mmHg 54%
    15:00 +27°C° 0 mm 3 mps 755 mmHg 55%
    16:00 +27°C° 0 mm 3 mps 755 mmHg 56%
    17:00 +26°C° 0 mm 2 mps 755 mmHg 62%
    18:00 +25°C° 0 mm 2 mps 755 mmHg 67%
    19:00 +24°C° 0 mm 1 mps 755 mmHg 72%
    20:00 +23°C° 0 mm 1 mps 756 mmHg 75%
    21:00 +23°C° 0 mm 1 mps 756 mmHg 77%
    22:00 +22°C° 0 mm 1 mps 756 mmHg 80%
    23:00 +19°C° 0 mm 0 mps 756 mmHg 82%

    25 July, Thursday

    Time Temperature Precipitation Wind Pressure Humidity
    00:00 +19°C° 0 mm 0 mps 756 mmHg 85%
    01:00 +18°C° 0 mm 0 mps 756 mmHg 87%
    02:00 +18°C° 0 mm 0 mps 757 mmHg 87%
    03:00 +18°C° 0 mm 0 mps 757 mmHg 88%
    04:00 +18°C° 0 mm 0 mps 757 mmHg 88%
    05:00 +19°C° 0 mm 0 mps 757 mmHg 83%
    06:00 +23°C° 0 mm 1 mps 757 mmHg 77%
    07:00 +24°C° 0 mm 1 mps 757 mmHg 72%
    08:00 +25°C° 0 mm 1 mps 757 mmHg 67%
    09:00 +27°C° 0 mm 1 mps 757 mmHg 61%
    10:00 +28°C° 0 mm 1 mps 758 mmHg 56%
    11:00 +29°C° 0 mm 1 mps 757 mmHg 53%
    12:00 +30°C° 0 mm 1 mps 757 mmHg 49%
    13:00 +30°C° 0 mm 1 mps 757 mmHg 45%
    14:00 +30°C° 0 mm 2 mps 757 mmHg 46%
    15:00 +30°C° 0 mm 2 mps 757 mmHg 46%
    16:00 +30°C° 0 mm 2 mps 757 mmHg 46%
    17:00 +29°C° 0 mm 2 mps 757 mmHg 52%
    18:00 +28°C° 0 mm 2 mps 757 mmHg 58%
    19:00 +26°C° 0 mm 2 mps 757 mmHg 64%
    20:00 +25°C° 0 mm 1 mps 757 mmHg 67%
    21:00 +24°C° 0 mm 1 mps 757 mmHg 70%
    22:00 +23°C° 0 mm 1 mps 757 mmHg 73%
    23:00 +22°C° 0 mm 1 mps 757 mmHg 75%
    Show more